ZIYUAN 3-2 (ZY 3-2) (41556 NORAD) Tracking and Keplerian Element Data

This shows tracking and keplerian element data for the satellite.

Feedback or suggestion? Click here.




ElementValue
Catalog41556
NameZIYUAN 3-2 (ZY 3-2)
Epoch Orbit11839
Epoch Day198.82817859
Epoch Year2018
RAAN276.226
Inclination97.4294
Eccentricity0.0001746
Argument of Perigee67.3175
Mean Anonmoly71.5935
Mean Motion15.21314643
Decay Rate5.12E-06
L11 41556U 16033A 18198.82817859 .00000512 00000-0 25956-4 0 9998
L22 41556 97.4294 276.2260 0001746 67.3175 71.5935 15.21314643118392

Live tracking and technical data element details for ZIYUAN 3-2 (ZY 3-2) (NORAD 41556). ZIYUAN 3-2 (ZY 3-2) can be tracked NOW for your location showing map with azimuth and elevation plus other details from your city location.

Track the satellite on the map from your city or location and see movement details for azimuth, elevation, latitude, longitude, range, height, and movement on the map or in text.







IsCatalogInMostPopularTable: catalog: 41556, numindb: 89
Update: records affected: 1



GetName: 41556 ZIYUAN 3-2 (ZY 3-2)

Hit Count: updated at: Fri, 20 Jul 2018 20:35:54 GMT